User: anonymous   Login
Location: Wawayanda State Park
(41.1833°N, 74.4333°W)
Time: 00:09:05
(UTC-05:00)
Language:

RESURS DK-1 - Orbit

View from above orbital plane
View from above orbital plane
View from above satellite
View from above satellite

Ground track
Ground track

The orbit data is extracted from the following two-line orbital elements,

1 29228U 06021A   18023.37793718  .00000051  00000-0  11259-4 0  9999
2 29228  69.9347 257.8168 0005423 328.3899  31.6935 15.02275826641169
Epoch (UTC): 23 January 2018 09:04:13
Eccentricity: 0.0005423
inclination: 69.9347°
perigee height: 556 km
apogee height: 563 km
right ascension of ascending node: 257.8168°
argument of perigee: 328.3899°
revolutions per day: 15.02275826
mean anomaly at epoch: 31.6935°
orbit number at epoch: 64116

The dashed part of the orbit path shows where the satellite is in the earth's shadow,  

DLR